TAM2455 SBKP-SBFI

Flight info

Callsign TAM2455
Flight time N/A
Altitude 38000
Route ASETA UZ152 UPORU
Aircraft A20N/M-SDE2E3FGHIRWXY/LB1

Departure

Time 2026-05-06 22:38
Airport Viracopos International Airport (SBKP)

Arrival

Time N/A
Airport Cataratas International Airport (SBFI)
Time Latitude Longitude Altitude Speed Heading
2026-05-06 22:26 -23.00414 -47.15034 2168 ft 0 kts 38°
2026-05-06 22:32 -23.00419 -47.15038 2159 ft 2 kts 39°
2026-05-06 22:32 -23.00432 -47.15049 2165 ft 2 kts 37°
2026-05-06 22:32 -23.00446 -47.15060 2159 ft 2 kts 35°
2026-05-06 22:32 -23.00460 -47.15070 2159 ft 2 kts
2026-05-06 22:33 -23.00470 -47.15066 2159 ft 1 kts 302°
2026-05-06 22:35 -23.00456 -47.15086 2166 ft 7 kts 308°
2026-05-06 22:35 -23.00409 -47.15149 2160 ft 12 kts 316°
2026-05-06 22:36 -23.00321 -47.15127 2162 ft 18 kts 36°
2026-05-06 22:36 -23.00203 -47.15024 2160 ft 25 kts 38°
2026-05-06 22:36 -23.00046 -47.14893 2168 ft 31 kts 40°
2026-05-06 22:36 -22.99934 -47.14774 2165 ft 5 kts 41°
2026-05-06 22:37 -22.99934 -47.14773 2163 ft 0 kts 41°
2026-05-06 22:37 -22.99928 -47.14767 2165 ft 4 kts 43°
2026-05-06 22:37 -22.99893 -47.14718 2168 ft 13 kts 61°
2026-05-06 22:37 -22.99913 -47.14607 2161 ft 20 kts 127°
2026-05-06 22:38 -23.00127 -47.14301 2163 ft 85 kts 127°
2026-05-06 22:38 -23.00613 -47.13623 2161 ft 140 kts 127°
2026-05-06 22:38 -23.01293 -47.12677 2283 ft 173 kts 128°
2026-05-06 22:38 -23.02072 -47.11624 2811 ft 179 kts 128°
2026-05-06 22:39 -23.02864 -47.10551 3269 ft 193 kts 128°
2026-05-06 22:39 -23.03727 -47.09370 3613 ft 211 kts 128°
2026-05-06 22:39 -23.04686 -47.08051 3894 ft 234 kts 130°
2026-05-06 22:39 -23.06035 -47.06956 4219 ft 257 kts 158°
2026-05-06 22:40 -23.07844 -47.06702 4832 ft 271 kts 186°
2026-05-06 22:40 -23.09612 -47.07441 5738 ft 277 kts 214°
2026-05-06 22:40 -23.10902 -47.08998 6718 ft 282 kts 242°
2026-05-06 22:40 -23.11441 -47.11049 7660 ft 287 kts 266°
2026-05-06 22:41 -23.11264 -47.15063 9435 ft 293 kts 278°